Location: Unspecified
(33.6682°S, 0.0000°E)
Time: 02:24:55
(UTC+00:00)

Tiros 1 despin weight - Pass Details

Date: 26 June 2019
Orbit: 594 x 643 km, 48.2° (Epoch: 22 July)

Event Time Altitude Azimuth Distance (km) Brightness Sun altitude
Rises 16:22:34 0° 237° (WSW) 2,969 ? 6.0°
Reaches altitude 10° 16:24:58 10° 242° (WSW) 2,054 ? 5.6°
Maximum altitude 16:29:32 48° 316° (NW) 839 ? 4.8°
Drops below altitude 10° 16:34:02 10° 30° (NNE) 2,023 ? 4.0°
Sets 16:36:24 0° 36° (NE) 2,920 ? 3.5°
